START_TIME,STEP,MOV.,M15,t_acc.,M20,t_acc.
1979-07-17 15:00:43.890 ,1,0,0.,24.0,0.,24.0
1979-07-17 15:01:07.890 ,2,1,0.,24.0,0.,24.0
1979-07-17 15:01:31.890 ,2,0,0.,24.0,0.,24.0
1979-07-17 15:01:55.890 ,3,1,0.,24.0,0.,24.0
1979-07-17 15:02:19.890 ,3,0,0.,24.0,0.,24.0
1979-07-17 15:02:43.890 ,4,1,0.,24.0,0.,24.0
1979-07-17 15:03:07.890 ,4,0,0.,24.0,0.,24.0
1979-07-17 15:03:31.890 ,5,1,0.,24.0,0.,24.0
1979-07-17 15:03:55.890 ,5,0,0.,24.0,0.,24.0
1979-07-17 15:04:19.890 ,6,1,0.,24.0,0.,24.0
1979-07-17 15:04:43.890 ,6,0,0.,24.0,0.,24.0
1979-07-17 15:05:07.890 ,7,1,0.,24.0,0.,24.0
1979-07-17 15:05:31.890 ,7,0,0.,24.0,0.,24.0
1979-07-17 15:05:55.890 ,7,1,0.,24.0,0.,24.0
1979-07-17 15:06:19.890 ,7,0,0.,24.0,0.,24.0
1979-07-17 15:06:43.890 ,6,1,0.,24.0,0.,24.0
1979-07-17 15:07:07.890 ,6,0,0.,24.0,0.,24.0
1979-07-17 15:07:31.890 ,5,1,0.,24.0,0.,24.0
1979-07-17 15:07:55.890 ,5,0,0.,24.0,0.,24.0
1979-07-17 15:08:19.890 ,4,1,0.,24.0,0.,24.0
1979-07-17 15:08:43.890 ,4,0,0.,24.0,0.,24.0
1979-07-17 15:09:07.890 ,3,1,0.,24.0,0.,24.0
1979-07-17 15:09:31.890 ,3,0,0.,24.0,0.,24.0
1979-07-17 15:09:55.890 ,2,1,0.,24.0,0.,24.0
1979-07-17 15:10:19.890 ,2,0,0.,24.0,0.,24.0
1979-07-17 15:10:43.890 ,1,1,0.,24.0,0.,24.0
1979-07-17 15:11:07.890 ,1,0,0.,24.0,0.,24.0
1979-07-17 15:11:31.890 ,0,1,0.,24.0,0.,24.0
1979-07-17 15:11:55.890 ,0,0,0.,24.0,0.,24.0
1979-07-17 15:12:19.890 ,0,1,0.,24.0,0.,24.0
1979-07-17 15:12:43.890 ,0,0,0.,24.0,0.,24.0
1979-07-17 15:13:07.890 ,1,1,0.,24.0,0.,24.0
1979-07-17 15:13:31.890 ,1,0,0.,24.0,0.,24.0
1979-07-17 15:13:55.890 ,2,1,0.,24.0,0.,24.0
1979-07-17 15:14:19.890 ,2,0,0.,24.0,0.,24.0
1979-07-17 15:14:43.890 ,3,1,0.,24.0,0.,24.0
1979-07-17 15:15:07.890 ,3,0,0.,24.0,0.,24.0
1979-07-17 15:15:31.890 ,4,1,0.,24.0,0.,24.0
1979-07-17 15:15:55.890 ,4,0,0.,24.0,0.,24.0
1979-07-17 15:16:19.890 ,5,1,0.,24.0,0.,24.0
1979-07-17 15:16:43.890 ,0,0,0.,24.0,0.,24.0
1979-07-17 15:17:16.290 ,0,0,0.,24.0,0.,24.0
1979-07-17 15:17:31.890 ,0,0,0.,24.0,0.,24.0
1979-07-17 15:17:55.890 ,7,1,0.,24.0,0.,24.0
1979-07-17 15:18:19.890 ,7,0,0.,24.0,0.,24.0
1979-07-17 15:18:43.890 ,7,1,0.,24.0,0.,24.0
1979-07-17 15:19:07.890 ,7,0,0.,24.0,0.,24.0
1979-07-17 15:19:31.890 ,6,1,0.,24.0,0.,24.0
1979-07-17 15:19:55.890 ,6,0,0.,24.0,0.,24.0
1979-07-17 15:20:19.890 ,5,1,0.,24.0,0.,24.0
1979-07-17 15:20:43.890 ,5,0,0.,24.0,0.,24.0
1979-07-17 15:21:07.890 ,4,1,0.,24.0,0.,24.0
1979-07-17 15:21:31.890 ,4,0,0.,24.0,0.,24.0
1979-07-17 15:21:55.890 ,3,1,0.,24.0,0.,24.0
1979-07-17 15:22:19.890 ,3,0,0.,24.0,0.,24.0
1979-07-17 15:22:43.890 ,2,1,0.,24.0,0.,24.0
1979-07-17 15:23:07.890 ,2,0,0.,24.0,0.,24.0
1979-07-17 15:23:31.890 ,1,1,0.,24.0,0.,24.0
1979-07-17 15:23:55.890 ,1,0,0.,24.0,0.,24.0
1979-07-17 15:24:19.890 ,0,1,0.,24.0,0.,24.0
1979-07-17 15:24:43.890 ,0,0,0.,24.0,0.,24.0
1979-07-17 15:25:07.890 ,0,1,0.,24.0,0.,24.0
1979-07-17 15:25:31.890 ,0,0,0.,24.0,0.,24.0
1979-07-17 15:25:55.890 ,1,1,0.,24.0,0.,24.0
1979-07-17 15:26:19.890 ,1,0,0.,24.0,0.,24.0
1979-07-17 15:26:43.890 ,2,1,0.,24.0,0.,24.0
1979-07-17 15:27:07.890 ,2,0,0.,24.0,0.,24.0
1979-07-17 15:27:31.890 ,3,1,0.,24.0,0.,24.0
1979-07-17 15:27:55.890 ,3,0,0.,24.0,0.,24.0
1979-07-17 15:28:19.890 ,4,1,0.,24.0,0.,24.0
1979-07-17 15:28:43.890 ,4,0,0.,24.0,0.,24.0
1979-07-17 15:29:07.890 ,5,1,0.,24.0,0.,24.0
1979-07-17 15:29:31.890 ,5,0,0.,24.0,0.,24.0
1979-07-17 15:29:55.890 ,6,1,0.,24.0,0.,24.0
1979-07-17 15:30:19.890 ,6,0,0.,24.0,0.,24.0
1979-07-17 15:30:43.890 ,7,0,0.,24.0,0.,24.0
1979-07-17 15:31:07.890 ,7,0,0.,24.0,0.,24.0
1979-07-17 15:31:31.890 ,3,1,0.,24.0,0.,24.0
1979-07-17 15:31:55.890 ,0,1,0.,24.0,0.,24.0
1979-07-17 15:32:19.890 ,4,1,0.,24.0,0.,24.0
1979-07-17 15:32:43.890 ,7,1,0.,24.0,0.,24.0
1979-07-17 15:33:07.890 ,3,1,0.,24.0,0.,24.0
1979-07-17 15:33:31.890 ,0,1,0.,24.0,0.,24.0
1979-07-17 15:33:55.890 ,4,1,0.,24.0,0.,24.0
1979-07-17 15:34:19.890 ,7,1,0.,24.0,0.,24.0
1979-07-17 15:34:43.890 ,3,1,0.,24.0,0.,24.0
1979-07-17 15:35:07.890 ,0,1,0.,24.0,0.,24.0
1979-07-17 15:35:31.890 ,4,1,0.,24.0,0.,24.0
1979-07-17 15:35:55.890 ,7,1,0.,24.0,0.,24.0
1979-07-17 15:36:19.890 ,3,1,0.,24.0,0.,24.0
1979-07-17 15:36:43.890 ,0,1,0.,24.0,0.,24.0
1979-07-17 15:37:07.890 ,4,1,0.,24.0,0.,24.0
1979-07-17 15:37:31.890 ,7,1,0.,24.0,0.,24.0
1979-07-17 15:37:55.890 ,3,1,0.,24.0,0.,24.0
1979-07-17 15:38:19.890 ,0,1,0.,24.0,0.,24.0
1979-07-17 15:38:43.890 ,4,1,0.,24.0,0.,24.0
1979-07-17 15:39:07.890 ,7,1,0.,24.0,0.,24.0
1979-07-17 15:39:31.890 ,3,1,0.,24.0,0.,24.0
1979-07-17 15:39:55.890 ,0,1,0.,24.0,0.,24.0
1979-07-17 15:40:19.890 ,4,1,0.,24.0,0.,24.0
1979-07-17 15:40:43.890 ,7,1,0.,24.0,0.,24.0
1979-07-17 15:41:07.890 ,3,1,0.,24.0,0.,24.0
1979-07-17 15:41:31.890 ,0,1,0.,24.0,0.,24.0
1979-07-17 15:41:55.890 ,0,0,0.,24.0,0.,24.0
1979-07-17 15:42:19.890 ,0,0,0.,24.0,0.,24.0
1979-07-17 15:42:43.890 ,5,1,0.,24.0,0.,24.0
1979-07-17 15:43:07.890 ,5,0,0.,24.0,0.,24.0
1979-07-17 15:43:31.890 ,4,1,0.,24.0,0.,24.0
1979-07-17 15:43:55.890 ,4,0,0.,24.0,0.,24.0
1979-07-17 15:44:19.890 ,3,1,0.,24.0,0.,24.0
1979-07-17 15:44:43.890 ,3,0,0.,24.0,0.,24.0
1979-07-17 15:45:07.890 ,2,1,0.,24.0,0.,24.0
1979-07-17 15:45:31.890 ,2,0,0.,24.0,0.,24.0
1979-07-17 15:45:55.890 ,1,1,0.,24.0,0.,24.0
1979-07-17 15:46:19.890 ,1,0,0.,24.0,0.,24.0
1979-07-17 15:46:43.890 ,0,1,0.,24.0,0.,24.0
1979-07-17 15:47:07.890 ,0,0,0.,24.0,0.,24.0
1979-07-17 15:47:31.890 ,0,1,0.,24.0,0.,24.0
1979-07-17 15:47:55.890 ,0,0,0.,24.0,0.,24.0
1979-07-17 15:48:19.890 ,1,1,1.,24.0,0.,24.0
1979-07-17 15:48:43.890 ,1,0,0.,24.0,0.,24.0
1979-07-17 15:49:07.890 ,2,1,0.,24.0,0.,24.0
1979-07-17 15:49:31.890 ,2,0,0.,24.0,0.,24.0
1979-07-17 15:49:55.890 ,3,1,0.,24.0,0.,24.0
1979-07-17 15:50:19.890 ,3,0,0.,24.0,0.,24.0
1979-07-17 15:50:43.890 ,4,1,0.,24.0,0.,24.0
1979-07-17 15:51:07.890 ,4,0,0.,24.0,0.,24.0
1979-07-17 15:51:31.890 ,5,1,0.,24.0,0.,24.0
1979-07-17 15:51:55.890 ,5,0,0.,24.0,0.,24.0
1979-07-17 15:52:19.890 ,6,1,0.,24.0,0.,24.0
1979-07-17 15:52:43.890 ,6,0,0.,24.0,0.,24.0
1979-07-17 15:53:07.890 ,7,1,0.,24.0,0.,24.0
1979-07-17 15:53:31.890 ,7,0,0.,24.0,0.,24.0
1979-07-17 15:53:55.890 ,7,1,0.,24.0,0.,24.0
1979-07-17 15:54:19.890 ,7,0,0.,24.0,0.,24.0
1979-07-17 15:54:43.890 ,6,1,0.,24.0,0.,24.0
1979-07-17 15:55:07.890 ,6,0,0.,24.0,0.,24.0
1979-07-17 15:55:31.890 ,5,1,0.,24.0,0.,24.0
1979-07-17 15:55:55.890 ,5,0,0.,24.0,0.,24.0
1979-07-17 15:56:19.890 ,4,1,0.,24.0,0.,24.0
1979-07-17 15:56:43.890 ,4,0,0.,24.0,0.,24.0
1979-07-17 15:57:07.890 ,3,1,0.,24.0,0.,24.0
1979-07-17 15:57:31.890 ,3,0,0.,24.0,0.,24.0
1979-07-17 15:57:55.890 ,2,1,0.,24.0,0.,24.0
1979-07-17 15:58:19.890 ,2,0,0.,24.0,0.,24.0
1979-07-17 15:58:43.890 ,1,1,0.,24.0,0.,24.0
1979-07-17 15:59:07.890 ,1,0,0.,24.0,0.,24.0
1979-07-17 15:59:31.890 ,0,1,0.,24.0,0.,24.0
1979-07-17 15:59:55.890 ,0,0,0.,24.0,0.,24.0
1979-07-17 16:00:19.890 ,0,1,0.,24.0,0.,24.0
1979-07-17 16:00:43.890 ,0,0,0.,24.0,0.,24.0
1979-07-17 16:01:07.890 ,1,1,0.,24.0,0.,24.0
1979-07-17 16:01:31.890 ,1,0,0.,24.0,0.,24.0
1979-07-17 16:01:55.890 ,2,1,0.,24.0,0.,24.0
1979-07-17 16:02:19.890 ,2,0,0.,24.0,0.,24.0
1979-07-17 16:02:43.890 ,3,1,0.,24.0,0.,24.0
1979-07-17 16:03:07.890 ,3,0,0.,24.0,0.,24.0
1979-07-17 16:03:31.880 ,4,1,0.,24.0,0.,24.0
1979-07-17 16:03:55.880 ,4,0,0.,24.0,0.,24.0
1979-07-17 16:04:19.880 ,5,1,0.,24.0,0.,24.0
1979-07-17 16:04:43.880 ,5,0,0.,24.0,0.,24.0
1979-07-17 16:05:07.880 ,6,1,0.,24.0,0.,24.0
1979-07-17 16:05:31.880 ,6,0,0.,24.0,0.,24.0
1979-07-17 16:05:55.880 ,7,1,0.,24.0,0.,24.0
1979-07-17 16:06:19.880 ,7,0,0.,24.0,0.,24.0
1979-07-17 16:06:43.880 ,7,1,0.,24.0,0.,24.0
1979-07-17 16:07:07.880 ,7,0,0.,24.0,0.,24.0
1979-07-17 16:07:31.880 ,6,1,0.,24.0,0.,24.0
1979-07-17 16:07:55.880 ,6,0,0.,24.0,0.,24.0
1979-07-17 16:08:19.880 ,5,1,0.,24.0,0.,24.0
1979-07-17 16:08:43.880 ,5,0,0.,24.0,0.,24.0
1979-07-17 16:09:07.880 ,4,1,0.,24.0,0.,24.0
1979-07-17 16:09:31.880 ,4,0,0.,24.0,0.,24.0
1979-07-17 16:09:55.880 ,3,1,0.,24.0,0.,24.0
1979-07-17 16:10:19.880 ,3,0,0.,24.0,0.,24.0
1979-07-17 16:10:43.880 ,2,1,0.,24.0,0.,24.0
1979-07-17 16:11:07.880 ,2,0,0.,24.0,0.,24.0
1979-07-17 16:11:31.880 ,1,1,0.,24.0,0.,24.0
1979-07-17 16:11:55.880 ,1,0,0.,24.0,0.,24.0
1979-07-17 16:12:19.880 ,0,1,0.,24.0,0.,24.0
1979-07-17 16:12:43.880 ,0,0,0.,24.0,0.,24.0
1979-07-17 16:13:07.880 ,0,1,0.,24.0,0.,24.0
1979-07-17 16:13:31.880 ,0,0,0.,24.0,0.,24.0
1979-07-17 16:13:55.880 ,1,1,0.,24.0,0.,24.0
1979-07-17 16:14:19.880 ,1,0,0.,24.0,0.,24.0
1979-07-17 16:14:43.880 ,2,1,0.,24.0,0.,24.0
1979-07-17 16:15:07.880 ,2,0,0.,24.0,0.,24.0
1979-07-17 16:15:31.880 ,3,1,0.,24.0,0.,24.0
1979-07-17 16:16:19.880 ,4,1,0.,24.0,0.,24.0
1979-07-17 16:16:43.880 ,4,0,0.,24.0,0.,24.0
1979-07-17 16:17:07.880 ,5,1,0.,24.0,0.,24.0
1979-07-17 16:17:31.880 ,5,0,0.,24.0,0.,24.0
1979-07-17 16:17:55.880 ,6,1,0.,24.0,0.,24.0
1979-07-17 16:18:19.880 ,6,0,0.,24.0,0.,24.0
1979-07-17 16:18:43.880 ,7,0,0.,24.0,0.,24.0
1979-07-17 16:19:07.880 ,7,0,0.,24.0,0.,24.0
1979-07-17 16:19:31.880 ,3,1,0.,24.0,0.,24.0
1979-07-17 16:19:55.880 ,0,1,0.,24.0,0.,24.0
1979-07-17 16:20:19.880 ,4,1,0.,24.0,0.,24.0
1979-07-17 16:20:43.880 ,7,1,0.,24.0,0.,24.0
1979-07-17 16:21:07.880 ,3,1,0.,24.0,0.,24.0
1979-07-17 16:21:31.880 ,0,1,0.,24.0,0.,24.0
1979-07-17 16:21:55.880 ,4,1,0.,24.0,0.,24.0
1979-07-17 16:22:19.880 ,7,1,0.,24.0,0.,24.0
1979-07-17 16:22:43.880 ,3,1,0.,24.0,0.,24.0
1979-07-17 16:23:07.880 ,0,1,0.,24.0,0.,24.0
1979-07-17 16:23:31.880 ,4,1,0.,24.0,0.,24.0
1979-07-17 16:23:55.880 ,7,1,0.,24.0,0.,24.0
1979-07-17 16:24:19.880 ,3,1,0.,24.0,0.,24.0
1979-07-17 16:24:43.880 ,0,1,0.,24.0,0.,24.0
1979-07-17 16:25:07.880 ,4,1,0.,24.0,0.,24.0
1979-07-17 16:25:31.880 ,7,1,0.,24.0,0.,24.0
1979-07-17 16:25:55.880 ,3,1,0.,24.0,0.,24.0
1979-07-17 16:26:19.880 ,0,1,0.,24.0,0.,24.0
1979-07-17 16:26:43.880 ,4,1,0.,24.0,0.,24.0
1979-07-17 16:27:07.880 ,7,1,0.,24.0,0.,24.0
1979-07-17 16:27:31.880 ,3,1,0.,24.0,0.,24.0
1979-07-17 16:27:55.880 ,0,1,0.,24.0,0.,24.0
1979-07-17 16:28:19.880 ,4,1,0.,24.0,0.,24.0
1979-07-17 16:28:43.880 ,7,1,0.,24.0,0.,24.0
1979-07-17 16:29:07.880 ,3,1,0.,24.0,0.,24.0
1979-07-17 16:29:31.880 ,0,1,0.,24.0,0.,24.0
1979-07-17 16:29:55.880 ,0,0,0.,24.0,0.,24.0
1979-07-17 16:30:19.880 ,0,0,0.,24.0,0.,24.0
1979-07-17 16:30:43.880 ,5,1,0.,24.0,0.,24.0
1979-07-17 16:31:07.880 ,5,0,0.,24.0,0.,24.0
1979-07-17 16:31:31.880 ,4,1,0.,24.0,0.,24.0
1979-07-17 16:31:55.880 ,4,0,0.,24.0,0.,24.0
1979-07-17 16:32:19.880 ,3,1,0.,24.0,0.,24.0
1979-07-17 16:32:43.880 ,3,0,0.,24.0,0.,24.0
1979-07-17 16:33:07.880 ,2,1,0.,24.0,0.,24.0
1979-07-17 16:33:31.880 ,2,0,0.,24.0,0.,24.0
1979-07-17 16:33:55.880 ,1,1,0.,24.0,0.,24.0
1979-07-17 16:34:19.880 ,1,0,0.,24.0,0.,24.0
1979-07-17 16:34:43.880 ,0,1,0.,24.0,0.,24.0
1979-07-17 16:35:07.880 ,0,0,0.,24.0,0.,24.0
1979-07-17 16:35:31.880 ,0,1,0.,24.0,0.,24.0
1979-07-17 16:35:55.880 ,0,0,0.,24.0,0.,24.0
1979-07-17 16:36:19.880 ,1,1,0.,24.0,0.,24.0
1979-07-17 16:36:43.880 ,1,0,0.,24.0,0.,24.0
1979-07-17 16:37:07.880 ,2,1,0.,24.0,0.,24.0
1979-07-17 16:37:31.880 ,2,0,0.,24.0,0.,24.0
1979-07-17 16:37:55.880 ,3,1,0.,24.0,0.,24.0
1979-07-17 16:38:19.880 ,3,0,0.,24.0,0.,24.0
1979-07-17 16:38:43.880 ,4,1,0.,24.0,0.,24.0
1979-07-17 16:39:07.880 ,4,0,0.,24.0,0.,24.0
1979-07-17 16:39:31.880 ,5,1,0.,24.0,0.,24.0
1979-07-17 16:39:55.880 ,5,0,0.,24.0,0.,24.0
1979-07-17 16:40:19.880 ,6,1,0.,24.0,0.,24.0
1979-07-17 16:40:43.880 ,6,0,0.,24.0,0.,24.0
1979-07-17 16:41:07.880 ,7,1,0.,24.0,0.,24.0
1979-07-17 16:41:31.880 ,7,0,0.,24.0,0.,24.0
1979-07-17 16:41:55.880 ,7,1,0.,24.0,0.,24.0
1979-07-17 16:42:19.880 ,7,0,0.,24.0,0.,24.0
1979-07-17 16:42:43.880 ,6,1,0.,24.0,0.,24.0
1979-07-17 16:43:07.880 ,6,0,0.,24.0,0.,24.0
1979-07-17 16:43:31.880 ,5,1,0.,24.0,0.,24.0
1979-07-17 16:43:55.880 ,5,0,0.,24.0,0.,24.0
1979-07-17 16:44:19.880 ,4,1,0.,24.0,0.,24.0
1979-07-17 16:44:43.880 ,4,0,0.,24.0,0.,24.0
1979-07-17 16:45:07.880 ,3,1,0.,24.0,0.,24.0
1979-07-17 16:45:31.880 ,3,0,0.,24.0,0.,24.0
1979-07-17 16:46:43.880 ,0,0,0.,24.0,0.,24.0
1979-07-17 16:47:07.880 ,0,0,0.,24.0,0.,24.0
1979-07-17 16:47:31.880 ,0,1,0.,24.0,0.,24.0
1979-07-17 16:47:55.880 ,0,0,0.,24.0,0.,24.0
1979-07-17 16:48:19.880 ,0,1,0.,24.0,0.,24.0
1979-07-17 16:48:43.880 ,0,0,0.,24.0,0.,24.0
1979-07-17 16:49:07.880 ,1,1,0.,24.0,0.,24.0
1979-07-17 16:49:31.880 ,1,0,0.,24.0,0.,24.0
1979-07-17 16:49:55.880 ,2,1,0.,24.0,0.,24.0
1979-07-17 16:50:19.880 ,2,0,0.,24.0,0.,24.0
1979-07-17 16:50:43.880 ,3,1,0.,24.0,0.,24.0
1979-07-17 16:51:07.880 ,3,0,0.,24.0,0.,24.0
1979-07-17 16:51:31.880 ,4,1,0.,24.0,0.,24.0
1979-07-17 16:51:55.880 ,4,0,0.,24.0,0.,24.0
1979-07-17 16:52:19.880 ,5,1,0.,24.0,0.,24.0
1979-07-17 16:52:43.880 ,5,0,0.,24.0,0.,24.0
1979-07-17 16:53:07.880 ,6,1,0.,24.0,0.,24.0
1979-07-17 16:53:31.880 ,6,0,0.,24.0,0.,24.0
1979-07-17 16:53:55.880 ,7,1,0.,24.0,0.,24.0
1979-07-17 16:54:19.880 ,7,0,0.,24.0,0.,24.0
1979-07-17 16:54:43.880 ,7,1,0.,24.0,0.,24.0
1979-07-17 16:55:07.880 ,7,0,0.,24.0,0.,24.0
1979-07-17 16:55:31.880 ,6,1,0.,24.0,0.,24.0
1979-07-17 16:55:55.880 ,6,0,0.,24.0,0.,24.0
1979-07-17 16:56:19.880 ,5,1,0.,24.0,0.,24.0
1979-07-17 16:56:43.880 ,5,0,0.,24.0,0.,24.0
1979-07-17 16:57:07.880 ,4,1,0.,24.0,0.,24.0
1979-07-17 16:57:31.880 ,4,0,0.,24.0,0.,24.0
1979-07-17 16:57:55.880 ,3,1,0.,24.0,0.,24.0
1979-07-17 16:58:19.880 ,3,0,0.,24.0,0.,24.0
1979-07-17 16:58:43.880 ,2,1,0.,24.0,0.,24.0
1979-07-17 16:59:07.880 ,2,0,0.,24.0,0.,24.0
1979-07-17 16:59:31.880 ,1,1,0.,24.0,0.,24.0
1979-07-17 16:59:55.880 ,1,0,0.,24.0,0.,24.0
1979-07-17 17:00:19.880 ,0,1,0.,24.0,0.,24.0
1979-07-17 17:00:43.880 ,0,0,0.,24.0,0.,24.0
1979-07-17 17:01:07.880 ,0,1,0.,24.0,0.,24.0
1979-07-17 17:01:31.880 ,0,0,0.,24.0,0.,24.0
1979-07-17 17:01:55.880 ,1,1,0.,24.0,0.,24.0
1979-07-17 17:02:19.880 ,1,0,0.,24.0,0.,24.0
1979-07-17 17:02:43.880 ,2,1,0.,24.0,0.,24.0
1979-07-17 17:03:07.880 ,2,0,0.,24.0,0.,24.0
1979-07-17 17:03:31.880 ,3,1,0.,24.0,0.,24.0
1979-07-17 17:03:55.880 ,3,0,0.,24.0,0.,24.0
1979-07-17 17:04:19.880 ,4,1,0.,24.0,0.,24.0
1979-07-17 17:04:43.880 ,4,0,0.,24.0,0.,24.0
1979-07-17 17:05:07.880 ,5,1,0.,24.0,0.,24.0
1979-07-17 17:05:31.880 ,5,0,0.,24.0,0.,24.0
1979-07-17 17:05:55.880 ,6,1,0.,24.0,0.,24.0
1979-07-17 17:06:19.880 ,6,0,0.,24.0,0.,24.0
1979-07-17 17:06:43.880 ,7,0,0.,24.0,0.,24.0
1979-07-17 17:07:07.880 ,7,0,0.,24.0,0.,24.0
1979-07-17 17:07:31.880 ,3,1,0.,24.0,0.,24.0
1979-07-17 17:07:55.880 ,0,1,0.,24.0,0.,24.0
1979-07-17 17:08:19.880 ,4,1,0.,24.0,0.,24.0
1979-07-17 17:08:43.880 ,7,1,0.,24.0,0.,24.0
1979-07-17 17:09:07.880 ,3,1,0.,24.0,0.,24.0
1979-07-17 17:09:31.880 ,0,1,0.,24.0,0.,24.0
1979-07-17 17:09:55.880 ,4,1,0.,24.0,0.,24.0
1979-07-17 17:10:19.880 ,7,1,0.,24.0,0.,24.0
1979-07-17 17:10:43.880 ,3,1,0.,24.0,0.,24.0
1979-07-17 17:11:07.880 ,0,1,0.,24.0,0.,24.0
1979-07-17 17:11:31.880 ,4,1,0.,24.0,0.,24.0
1979-07-17 17:11:55.880 ,7,1,0.,24.0,0.,24.0
1979-07-17 17:12:19.880 ,3,1,0.,24.0,0.,24.0
1979-07-17 17:12:43.880 ,0,1,0.,24.0,0.,24.0
1979-07-17 17:13:07.880 ,4,1,0.,24.0,0.,24.0
1979-07-17 17:13:31.880 ,7,1,0.,24.0,0.,24.0
1979-07-17 17:13:55.880 ,3,1,0.,24.0,0.,24.0
1979-07-17 17:14:19.880 ,0,1,0.,24.0,0.,24.0
1979-07-17 17:14:43.880 ,4,1,0.,24.0,0.,24.0
1979-07-17 17:15:07.880 ,7,1,0.,24.0,0.,24.0
1979-07-17 17:15:31.880 ,3,1,0.,24.0,0.,24.0
1979-07-17 17:15:55.880 ,0,1,0.,24.0,0.,24.0
1979-07-17 17:16:19.880 ,4,1,0.,24.0,0.,24.0
1979-07-17 17:16:43.880 ,7,1,0.,24.0,0.,24.0
1979-07-17 17:17:07.880 ,3,1,0.,24.0,0.,24.0
1979-07-17 17:17:31.880 ,0,1,0.,24.0,0.,24.0
1979-07-17 17:17:55.880 ,0,0,0.,24.0,0.,24.0
1979-07-17 17:18:19.880 ,0,0,0.,24.0,0.,24.0
1979-07-17 17:18:43.880 ,5,1,0.,24.0,0.,24.0
1979-07-17 17:19:07.880 ,5,0,0.,24.0,0.,24.0
1979-07-17 17:19:31.880 ,4,1,0.,24.0,0.,24.0
1979-07-17 17:19:55.880 ,4,0,0.,24.0,0.,24.0
1979-07-17 17:20:19.880 ,3,1,0.,24.0,0.,24.0
1979-07-17 17:20:43.880 ,3,0,0.,24.0,0.,24.0
1979-07-17 17:21:07.880 ,2,1,0.,24.0,0.,24.0
1979-07-17 17:21:31.880 ,2,0,0.,24.0,0.,24.0
1979-07-17 17:21:55.880 ,1,1,0.,24.0,0.,24.0
1979-07-17 17:22:19.880 ,1,0,0.,24.0,0.,24.0
1979-07-17 17:22:43.880 ,0,1,0.,24.0,0.,24.0
1979-07-17 17:23:07.880 ,0,0,0.,24.0,0.,24.0
1979-07-17 17:23:33.080 ,0,1,0.,24.0,0.,24.0
1979-07-17 17:23:55.880 ,0,0,0.,24.0,0.,24.0
1979-07-17 17:24:19.880 ,1,1,0.,24.0,0.,24.0
1979-07-17 17:24:43.880 ,1,0,0.,24.0,0.,24.0
1979-07-17 17:25:07.880 ,2,1,0.,24.0,0.,24.0
1979-07-17 17:25:31.880 ,2,0,0.,24.0,0.,24.0
1979-07-17 17:25:55.880 ,3,1,0.,24.0,0.,24.0
1979-07-17 17:26:19.880 ,3,0,0.,24.0,0.,24.0
1979-07-17 17:26:43.880 ,4,1,0.,24.0,0.,24.0
1979-07-17 17:27:07.880 ,4,0,0.,24.0,0.,24.0
1979-07-17 17:27:31.880 ,5,1,0.,24.0,0.,24.0
1979-07-17 17:27:55.880 ,5,0,0.,24.0,0.,24.0
1979-07-17 17:28:19.880 ,6,1,0.,24.0,0.,24.0
1979-07-17 17:28:43.880 ,6,0,0.,24.0,0.,24.0
1979-07-17 17:29:07.880 ,7,1,0.,24.0,0.,24.0
1979-07-17 17:29:31.880 ,7,0,0.,24.0,0.,24.0
1979-07-17 17:29:55.880 ,7,1,0.,24.0,0.,24.0
1979-07-17 17:30:19.880 ,7,0,0.,24.0,0.,24.0
1979-07-17 17:30:43.880 ,6,1,0.,24.0,0.,24.0
1979-07-17 17:31:07.880 ,6,0,0.,24.0,0.,24.0
1979-07-17 17:31:31.880 ,5,1,0.,24.0,0.,24.0
1979-07-17 17:31:55.880 ,5,0,0.,24.0,0.,24.0
1979-07-17 17:32:19.880 ,4,1,0.,24.0,0.,24.0
1979-07-17 17:32:43.880 ,4,0,0.,24.0,0.,24.0
1979-07-17 17:33:07.880 ,3,1,0.,24.0,0.,24.0
1979-07-17 17:33:31.880 ,3,0,0.,24.0,0.,24.0
1979-07-17 17:33:55.880 ,2,1,0.,24.0,0.,24.0
1979-07-17 17:34:19.880 ,2,0,0.,24.0,0.,24.0
1979-07-17 17:34:43.880 ,1,1,0.,24.0,0.,24.0
1979-07-17 17:35:07.880 ,1,0,0.,24.0,0.,24.0
1979-07-17 17:35:31.880 ,0,1,0.,24.0,0.,24.0
1979-07-17 17:35:55.880 ,0,0,0.,24.0,0.,24.0
1979-07-17 17:36:19.880 ,0,1,0.,24.0,0.,24.0
1979-07-17 17:36:43.880 ,0,0,0.,24.0,0.,24.0
1979-07-17 17:37:07.880 ,1,1,0.,24.0,0.,24.0
1979-07-17 17:37:31.880 ,1,0,0.,24.0,0.,24.0
1979-07-17 17:37:55.880 ,2,1,0.,24.0,0.,24.0
1979-07-17 17:38:19.880 ,2,0,0.,24.0,0.,24.0
1979-07-17 17:38:43.880 ,3,1,0.,24.0,0.,24.0
1979-07-17 17:39:07.880 ,3,0,0.,24.0,0.,24.0
1979-07-17 17:39:31.880 ,4,1,0.,24.0,0.,24.0
1979-07-17 17:39:55.880 ,4,0,0.,24.0,0.,24.0
1979-07-17 17:40:19.880 ,5,1,1.,24.0,0.,24.0
1979-07-17 17:40:43.880 ,5,0,0.,24.0,0.,24.0
1979-07-17 17:41:07.880 ,6,1,0.,24.0,0.,24.0
1979-07-17 17:41:31.880 ,6,0,0.,24.0,0.,24.0
1979-07-17 17:41:55.880 ,7,1,0.,24.0,0.,24.0
1979-07-17 17:42:19.880 ,7,0,0.,24.0,0.,24.0
1979-07-17 17:42:43.880 ,7,1,0.,24.0,0.,24.0
1979-07-17 17:43:07.880 ,7,0,0.,24.0,0.,24.0
1979-07-17 17:43:31.880 ,6,1,0.,24.0,0.,24.0
1979-07-17 17:43:55.880 ,6,0,0.,24.0,0.,24.0
1979-07-17 17:44:19.880 ,5,1,0.,24.0,0.,24.0
1979-07-17 17:44:43.880 ,5,0,0.,24.0,0.,24.0
1979-07-17 17:45:07.880 ,4,1,0.,24.0,0.,24.0
1979-07-17 17:45:31.880 ,4,0,0.,24.0,0.,24.0
1979-07-17 17:45:55.880 ,3,1,0.,24.0,0.,24.0
1979-07-17 17:46:19.880 ,3,0,0.,24.0,0.,24.0
1979-07-17 17:46:43.880 ,2,1,0.,24.0,0.,24.0
1979-07-17 17:47:07.880 ,2,0,0.,24.0,0.,24.0
1979-07-17 17:47:31.880 ,1,1,0.,24.0,0.,24.0
1979-07-17 17:47:55.880 ,1,0,0.,24.0,0.,24.0
1979-07-17 17:48:19.880 ,0,1,0.,24.0,0.,24.0
1979-07-17 17:48:43.880 ,0,0,0.,24.0,0.,24.0
1979-07-17 17:49:07.880 ,0,1,0.,24.0,0.,24.0
1979-07-17 17:49:31.880 ,0,0,0.,24.0,0.,24.0
1979-07-17 17:49:55.880 ,1,1,0.,24.0,0.,24.0
1979-07-17 17:50:19.880 ,1,0,0.,24.0,0.,24.0
1979-07-17 17:50:43.880 ,2,1,0.,24.0,0.,24.0
1979-07-17 17:51:07.880 ,2,0,0.,24.0,0.,24.0
1979-07-17 17:51:31.880 ,3,1,0.,24.0,0.,24.0
1979-07-17 17:51:55.880 ,3,0,0.,24.0,0.,24.0
1979-07-17 17:52:19.880 ,4,1,0.,24.0,0.,24.0
1979-07-17 17:52:43.880 ,4,0,0.,24.0,0.,24.0
1979-07-17 17:53:07.880 ,5,1,0.,24.0,0.,24.0
1979-07-17 17:53:31.880 ,5,0,0.,24.0,0.,24.0
1979-07-17 17:53:55.880 ,6,1,0.,24.0,0.,24.0
1979-07-17 17:54:19.880 ,6,0,0.,24.0,0.,24.0
1979-07-17 17:54:43.880 ,7,0,0.,24.0,0.,24.0
1979-07-17 17:55:07.880 ,7,0,0.,24.0,0.,24.0
1979-07-17 17:55:31.880 ,3,1,0.,24.0,0.,24.0
1979-07-17 17:55:55.880 ,0,1,0.,24.0,0.,24.0
1979-07-17 17:56:19.880 ,4,1,0.,24.0,0.,24.0
1979-07-17 17:56:43.880 ,7,1,0.,24.0,0.,24.0
1979-07-17 17:57:07.880 ,3,1,0.,24.0,0.,24.0
1979-07-17 17:57:31.880 ,0,1,0.,24.0,0.,24.0
1979-07-17 17:57:55.880 ,4,1,0.,24.0,0.,24.0
1979-07-17 17:58:19.880 ,7,1,0.,24.0,0.,24.0
1979-07-17 17:58:43.880 ,3,1,0.,24.0,0.,24.0
1979-07-17 17:59:07.880 ,0,1,0.,24.0,0.,24.0
1979-07-17 17:59:31.880 ,4,1,0.,24.0,0.,24.0
1979-07-17 17:59:55.880 ,7,1,0.,24.0,0.,24.0
1979-07-17 18:00:19.880 ,3,1,0.,24.0,0.,24.0
